Location: Ay?beleni
(36.6500°N, 30.3000°E)
Time: 01:14:55
(UTC+00:00)

USA 234 - Pass Details

Date: 09 April 2020
Orbit: 1102 x 1106 km, 123.0° (Epoch: 14 May)

Event Time Altitude Azimuth Distance (km) Brightness Sun altitude
Rises 19:49:48 0° 39° (NE) 3,923 6.3 -35.9°
Reaches altitude 10° 19:52:24 10° 33° (NNE) 2,964 5.6 -36.2°
Maximum altitude 19:58:29 43° 325° (NW) 1,496 4.2 -37.0°
Drops below altitude 10° 20:04:35 10° 256° (WSW) 2,957 5.7 -37.8°
Sets 20:07:10 0° 250° (WSW) 3,914 6.3 -38.1°
